Regional Weather Roundup
Issued by NWS Upton, NY

Current Version | Previous Version | Text Only | Print | Product List | Glossary On
Versions: 1 2 3 4 5 6 7 8 9 10 11 12 13 14 15 16 17 18 19 20 21 22 23 24 25 26 27 28 29 30 31 32 33 34 35 36 37 38 39 40 41 42 43 44 45 46 47 48
000
ASUS41 KOKX 290005
RWROKX

REGIONAL WEATHER ROUNDUP
NATIONAL WEATHER SERVICE NEW YORK NY
700 PM EST WED JAN 28 2015

NOTE: "FAIR" INDICATES FEW OR NO CLOUDS BELOW 12,000 FEET WITH NO
SIGNIFICANT WEATHER AND/OR OBSTRUCTIONS TO VISIBILITY.

NYZ071-072-176-178-NJZ106-104-290100-
NEW YORK CITY METRO AREA


CITY           SKY/WX    TMP DP  RH WIND       PRES   REMARKS
CENTRAL PARK   CLEAR     31   2  29 NW8       30.20R WCI  23
LAGUARDIA APRT CLEAR     31  10  41 NW7       30.19R WCI  24
KENNEDY INTL   CLEAR     30   9  41 N9        30.20R WCI  22
NEWARK/LIBERTY CLEAR     29   5  36 NW7       30.20R WCI  22
BRNX BOT. GARD   N/A    N/A N/A N/A NW3       30.19S
TETERBORO      CLEAR     29   1  30 NW7       30.19R WCI  22
$$

NYZ177-179-078>081-290100-
LONG ISLAND NEW YORK

CITY           SKY/WX    TMP DP  RH WIND       PRES   REMARKS
FARMINGDALE    CLEAR     29   4  34 N12       30.18R WCI  19
ISLIP          CLEAR     26   7  44 N16       30.15R WCI  14
SHIRLEY        CLEAR     27   6  41 N15       30.17R WCI  15
WESTHAMPTON    CLEAR     25   9  50 N10       30.17R WCI  15
MONTAUK POINT    N/A     28  11  48 N10       30.14R WCI  19
$$

NYZ052-065-067-290100-
HUDSON VALLEY

CITY           SKY/WX    TMP DP  RH WIND       PRES   REMARKS
WHITE PLAINS   CLEAR     23   5  46 NW13      30.16R WCI  11
NEWBURGH       CLEAR     25   7  46 N9        30.19R WCI  15
MONTGOMERY     FAIR      24  -3  30 NW7       30.18R WCI  16
POUGHKEEPSIE   CLEAR     19   6  57 CALM      30.21R
ALBANY         CLEAR     19  -1  41 N8        30.25R WCI   9
$$

NJZ001-105-106-008-010-013-015-019>022-104-290100-
NEW JERSEY

CITY           SKY/WX    TMP DP  RH WIND       PRES   REMARKS
NEWARK/LIBERTY CLEAR     29   5  36 NW7       30.20R WCI  22
TETERBORO      CLEAR     29   1  30 NW7       30.19R WCI  22
CALDWELL       CLEAR     28  -1  28 VRB3      30.21R
MORRISTOWN     CLEAR     23   5  46 NW3       30.20R
SOMERVILLE     FAIR      24   1  36 CALM      30.20R
SUSSEX         CLEAR     27  -3  27 NW3       30.19R
ANDOVER          N/A     25   0  33 N6        30.20R WCI  18
TRENTON        CLEAR     28   0  29 N7        30.21R WCI  21
MILLVILLE      CLEAR     28   6  39 NW9       30.23R WCI  19
ATLANTIC CITY  CLEAR     26   6  42 NW9       30.21R WCI  17
WRIGHTSTOWN    CLEAR     26   6  41 NW8       30.19R WCI  18
TOMS RIVER     FAIR      27   9  46 NW8       30.21R WCI  18
BELMAR         CLEAR     27   3  36 NW10      30.19R WCI  17
$$

PAZ047>061-062-071-290100-
EASTERN PENNSYLVANIA

CITY           SKY/WX    TMP DP  RH WIND       PRES   REMARKS
PHILADELPHIA   CLEAR     32   3  29 NW8       30.25R WCI  25
ALLENTOWN      CLEAR     26   1  34 N7        30.24R WCI  18
SCRANTON       CLEAR     24   4  42 N14G26    30.24R WCI  12
$$

CTZ002-004>006-009-010-012-RIZ004-006-007-MAZ004-011-015-290100-
SOUTHERN NEW ENGLAND
 IN CT

CITY           SKY/WX    TMP DP  RH WIND       PRES   REMARKS
BRADLEY INTL   PTCLDY    24   1  36 N12       30.16R WCI  13
HARTFORD       CLEAR     24   3  40 VRB7      30.18R WCI  16
DANBURY        CLEAR     23  -1  35 VRB5      30.18R WCI  17
WTRBRY/OXFORD  CLEAR     19   0  42 N10       30.14  WCI   8
BRIDGEPORT     CLEAR     25   4  40 NW8       30.18R WCI  16
MERIDEN        CLEAR     24   4  42 NW9       30.17R WCI  14
NEW HAVEN      CLEAR     25   4  40 N15G21    30.16R WCI  13
CHESTER        FAIR      27   5  39 NW14G22   30.12R WCI  15
GROTON         CLEAR     23   9  55 N7        30.13R WCI  15
WILLIMANTIC    CLEAR     23   8  52 NW6       30.14R WCI  16

 IN RI

CITY           SKY/WX    TMP DP  RH WIND       PRES   REMARKS
PROVIDENCE     CLEAR     23   8  52 NW5       30.13R WCI  17
BLOCK ISLAND   CLEAR     25   9  50 N12G17    30.11R WCI  14
WESTERLY       CLEAR     20   8  60 CALM      30.14R

 IN MA

CITY           SKY/WX    TMP DP  RH WIND       PRES   REMARKS
BOSTON         PTCLDY    23   8  52 NW10      30.12R WCI  12
WORCESTER      CLEAR     19   3  49 NW16      30.06R WCI   4
WESTFIELD      CLEAR     22   2  42 NW12      30.16R WCI  10
PROVINCETOWN   CLOUDY    27  16  63 NW14G21   30.10R WCI  15
NANTUCKET      CLOUDY    25  16  68 NW12      30.09R WCI  14
$$

ANZ330-335-338-340-345-350-353-355-290100-
COASTAL MARINE OBSERVATIONS


STATION/POSITION TIME  SKY/WX   TEMP    WIND        PRES    VSBY  WAVE
                                AIR SEA DIR/SP/G                  HT/PER
                 (UTC)          (F)     (DEG/KT/KT) (MB)    (MI)  (FT/S)
NY HARB ENTRANCE 0000            35 40  340/ 17/ 21 1021.5          3/12
4S FIRE IS       2300               37                N/A           3/12
20S FIRE ISLAND  2300               42              1020.2          5/ 5
23SW MTP         0000                                 N/A           4/11
HUDSON CANYON    NOT AVBL
EXECUTION ROCKS  0000            31 34  340/  6/  8   N/A
WESTERN LI SOUND 0000            31     360/ 10/ 12   N/A           1
CENTRAL LI SOUND 2300            28 35  330/ 17/ 21   N/A           2/ 4
EASTERN LI SOUND NOT AVBL
ROBBINS REEF     2300            32     330/ 10/ 14 1021.0
$$


>>>>>>>>>>>>>>>>>>>>>>>>>>>> KEY <<<<<<<<<<<<<<<<<<<<<<<<<<<
>                                                          <
>     SKY/WX - SKY CONDITION/PRESENT WEATHER               <
>     TMP    - TEMPERATURE IN FAHRENHEIT                   <
>     DP     - DEWPOINT IN FAHRENHEIT                      <
>     RH     - RELATIVE HUMIDITY IN PERCENT                <
>     WIND   - DIRECTION AND SPEED IN MPH                  <
>     PRES   - MEAN SEA LEVEL PRESSURE IN INCHES OF HG     <
>     WCI    - WIND CHILL INDEX                            <
>     VSB    - VISIBILITY IN MILES                         <
>     HX     - HEAT INDEX                                  <
>     TC     - TEMPERATURE IN CELSIUS                      <
>     VRB    - VARIABLE WIND DIRECTION                     <
>                                                          <
>>>>>>>>>>>>>>>>>>>>>>>>>>>> KEY <<<<<<<<<<<<<<<<<<<<<<<<<<<




USA.gov is the U.S. government's official web portal to all federal, state and local government web resources and services.